User: anonymous   Login
Location: Unspecified
(0.0000°N, 0.0000°E)
Time: 12:48:44
(UTC+00:00)
Language:

NOSS 2-3 (D) - Orbit

View from above orbital plane
View from above orbital plane
View from above satellite
View from above satellite

Ground track
Ground track

The orbit data is extracted from the following two-line orbital elements,

1 23862U 96029D   17078.79687095 0.00000000  00000-0  00000-0 0    04
2 23862  63.3744 283.7975 0586000  12.7988 347.2012 13.40809984    00
Epoch (UTC): 19 March 2017 19:07:29
Eccentricity: 0.0586000
inclination: 63.3744°
perigee height: 667 km
apogee height: 1545 km
right ascension of ascending node: 283.7975°
argument of perigee: 12.7988°
revolutions per day: 13.40809984
mean anomaly at epoch: 347.2012°
orbit number at epoch: 0

The dashed part of the orbit path shows where the satellite is in the earth's shadow,  

DLR